Tracking 18665 objects as of 23-June-2017
HD Live streaming from Space Station
objects crossing your sky now

INS-1A

Track INS-1A now!
10-day predictions


NORAD ID: 41949
Int'l Code: 2017-008B
Perigee: 500.9 km
Apogee: 515.3 km
Inclination: 97.5 °
Period: 94.6 minutes
Semi major axis: 6879 km
RCS: Unknown
Launch date: February 15, 2017
Source: India (IND)
Launch site: SIRHARIKOTA (SRI)
Your satellite tracking list
Your tracking list is empty





NASA's NSSDC Master Catalog

Two Line Element Set (TLE):
1 41949U 17008B   17173.47384740 +.00001512 +00000-0 +70031-4 0  9993
2 41949 097.4939 234.6417 0010448 162.5983 197.5612 15.21622092019335
Source of the keplerian elements: AFSPC